Time,TemperatureF,DewpointF,PressureIn,WindDirection,WindDirectionDegrees,WindSpeedMPH,WindSpeedGustMPH,Humidity,HourlyPrecipIn,Conditions,Clouds,dailyrainin,SoftwareType,DateUTC
2013-01-26 00:03:00,14.9,-5.7,30.19,NNW,337,2.7,6.7,39,0.00,,,0.02,WUHU21623XXSP,2013-01-26 06:03:00,
2013-01-26 00:08:00,14.7,-5.9,30.19,NNW,337,0.9,3.6,39,0.00,,,0.00,WUHU21623XXSP,2013-01-26 06:08:00,
2013-01-26 00:13:00,14.5,-6.1,30.19,NNW,337,0.7,4.7,39,0.00,,,0.00,WUHU21623XXSP,2013-01-26 06:13:00,
2013-01-26 00:18:00,14.4,-5.7,30.19,NW,315,0.0,4.7,40,0.00,,,0.00,WUHU21623XXSP,2013-01-26 06:18:00,
2013-01-26 00:23:00,14.4,-5.7,30.19,WNW,292,1.3,8.1,40,0.00,,,0.00,WUHU21623XXSP,2013-01-26 06:23:00,
2013-01-26 00:28:00,14.4,-5.7,30.19,NNW,337,1.1,8.1,40,0.00,,,0.00,WUHU21623XXSP,2013-01-26 06:28:00,
2013-01-26 00:33:00,14.4,-5.7,30.19,NW,315,0.7,8.1,40,0.00,,,0.00,WUHU21623XXSP,2013-01-26 06:33:00,
2013-01-26 00:38:00,14.2,-5.8,30.19,NW,315,1.1,4.0,40,0.00,,,0.00,WUHU21623XXSP,2013-01-26 06:38:00,
2013-01-26 00:43:00,14.2,-5.8,30.20,NNW,337,0.0,4.0,40,0.00,,,0.00,WUHU21623XXSP,2013-01-26 06:43:00,
2013-01-26 00:48:00,14.0,-6.0,30.19,NNW,337,0.0,3.4,40,0.00,,,0.00,WUHU21623XXSP,2013-01-26 06:48:00,
2013-01-26 00:53:00,13.8,-6.1,30.20,NW,315,0.9,11.6,40,0.00,,,0.00,WUHU21623XXSP,2013-01-26 06:53:00,
2013-01-26 00:58:00,13.6,-6.3,30.20,NNW,337,0.7,11.6,40,0.00,,,0.00,WUHU21623XXSP,2013-01-26 06:58:00,
2013-01-26 01:03:00,13.6,-5.8,30.20,NW,315,0.0,6.9,41,0.00,,,0.00,WUHU21623XXSP,2013-01-26 07:03:00,
2013-01-26 01:08:00,13.6,-5.8,30.19,NNW,337,0.0,6.9,41,0.00,,,0.00,WUHU21623XXSP,2013-01-26 07:08:00,
2013-01-26 01:13:00,13.5,-6.0,30.19,NNW,337,0.0,5.8,41,0.00,,,0.00,WUHU21623XXSP,2013-01-26 07:13:00,
2013-01-26 01:18:00,13.5,-6.0,30.20,NNW,337,0.7,4.9,41,0.00,,,0.00,WUHU21623XXSP,2013-01-26 07:18:00,
2013-01-26 01:23:00,13.3,-6.2,30.20,NW,315,0.4,4.9,41,0.00,,,0.00,WUHU21623XXSP,2013-01-26 07:23:00,
2013-01-26 01:28:00,13.1,-6.3,30.20,NNW,337,0.0,10.5,41,0.00,,,0.00,WUHU21623XXSP,2013-01-26 07:28:00,
2013-01-26 01:33:00,13.1,-6.3,30.20,NNW,337,0.0,10.5,41,0.00,,,0.00,WUHU21623XXSP,2013-01-26 07:33:00,
2013-01-26 01:38:00,13.1,-6.3,30.21,NNE,22,0.4,4.3,41,0.00,,,0.00,WUHU21623XXSP,2013-01-26 07:38:00,
2013-01-26 01:43:00,13.1,-6.3,30.20,WNW,292,0.0,4.3,41,0.00,,,0.00,WUHU21623XXSP,2013-01-26 07:43:00,
2013-01-26 01:48:00,12.9,-6.5,30.21,NNW,337,0.0,2.2,41,0.00,,,0.00,WUHU21623XXSP,2013-01-26 07:48:00,
2013-01-26 01:53:00,12.9,-6.5,30.21,North,0,0.0,2.5,41,0.00,,,0.00,WUHU21623XXSP,2013-01-26 07:53:00,
2013-01-26 01:58:00,12.7,-6.6,30.21,NNW,337,0.0,3.6,41,0.00,,,0.00,WUHU21623XXSP,2013-01-26 07:58:00,
2013-01-26 02:03:00,12.6,-6.8,30.22,NNW,337,1.1,3.6,41,0.00,,,0.00,WUHU21623XXSP,2013-01-26 08:03:00,
2013-01-26 02:08:00,12.6,-6.8,30.22,North,0,0.0,2.9,41,0.00,,,0.00,WUHU21623XXSP,2013-01-26 08:08:00,
2013-01-26 02:13:00,12.4,-7.0,30.22,NW,315,0.0,4.9,41,0.00,,,0.00,WUHU21623XXSP,2013-01-26 08:13:00,
2013-01-26 02:18:00,12.4,-7.0,30.22,WNW,292,0.9,6.5,41,0.00,,,0.00,WUHU21623XXSP,2013-01-26 08:18:00,
2013-01-26 02:23:00,12.2,-7.1,30.23,WNW,292,0.0,6.5,41,0.00,,,0.00,WUHU21623XXSP,2013-01-26 08:23:00,
2013-01-26 02:28:00,12.0,-7.3,30.23,WNW,292,0.0,8.7,41,0.00,,,0.00,WUHU21623XXSP,2013-01-26 08:28:00,
2013-01-26 02:33:00,11.8,-7.5,30.23,NW,315,0.0,8.7,41,0.00,,,0.00,WUHU21623XXSP,2013-01-26 08:33:00,
2013-01-26 02:38:00,11.8,-7.5,30.23,NNW,337,0.7,6.3,41,0.00,,,0.00,WUHU21623XXSP,2013-01-26 08:38:00,
2013-01-26 02:43:00,11.7,-7.6,30.23,NNW,337,0.0,6.3,41,0.00,,,0.00,WUHU21623XXSP,2013-01-26 08:43:00,
2013-01-26 02:48:00,11.7,-7.6,30.23,NW,315,1.3,5.1,41,0.00,,,0.00,WUHU21623XXSP,2013-01-26 08:48:00,
2013-01-26 02:53:00,11.7,-7.6,30.24,NW,315,0.0,5.1,41,0.00,,,0.00,WUHU21623XXSP,2013-01-26 08:53:00,
2013-01-26 02:58:00,11.5,-7.8,30.24,NNW,337,0.0,8.3,41,0.00,,,0.00,WUHU21623XXSP,2013-01-26 08:58:00,
2013-01-26 03:03:00,11.3,-7.9,30.24,NNW,337,0.4,8.3,41,0.00,,,0.00,WUHU21623XXSP,2013-01-26 09:03:00,
2013-01-26 03:08:00,11.3,-7.9,30.24,NNW,337,0.7,5.4,41,0.00,,,0.00,WUHU21623XXSP,2013-01-26 09:08:00,
2013-01-26 03:13:00,11.3,-7.9,30.24,North,0,0.4,3.8,41,0.00,,,0.00,WUHU21623XXSP,2013-01-26 09:13:00,
2013-01-26 03:18:00,11.3,-7.9,30.24,NW,315,0.0,6.9,41,0.00,,,0.00,WUHU21623XXSP,2013-01-26 09:18:00,
2013-01-26 03:23:00,11.1,-8.1,30.24,NNW,337,0.0,6.9,41,0.00,,,0.00,WUHU21623XXSP,2013-01-26 09:23:00,
2013-01-26 03:28:00,11.1,-8.1,30.24,NW,315,0.0,4.9,41,0.00,,,0.00,WUHU21623XXSP,2013-01-26 09:28:00,
2013-01-26 03:33:00,10.9,-8.3,30.25,West,270,0.0,4.9,41,0.00,,,0.00,WUHU21623XXSP,2013-01-26 09:33:00,
2013-01-26 03:38:00,10.9,-8.3,30.25,West,270,0.0,4.9,41,0.00,,,0.00,WUHU21623XXSP,2013-01-26 09:38:00,
2013-01-26 03:43:00,10.8,-8.4,30.25,NNW,337,0.0,3.4,41,0.00,,,0.00,WUHU21623XXSP,2013-01-26 09:43:00,
2013-01-26 03:48:00,10.6,-8.6,30.25,NNW,337,0.0,3.4,41,0.00,,,0.00,WUHU21623XXSP,2013-01-26 09:48:00,
2013-01-26 03:53:00,10.6,-8.6,30.25,North,0,0.0,6.7,41,0.00,,,0.00,WUHU21623XXSP,2013-01-26 09:53:00,
2013-01-26 03:58:00,10.4,-8.8,30.25,WNW,292,3.1,6.7,41,0.00,,,0.00,WUHU21623XXSP,2013-01-26 09:58:00,
2013-01-26 04:03:00,10.4,-8.8,30.25,NW,315,0.0,5.1,41,0.00,,,0.00,WUHU21623XXSP,2013-01-26 10:03:00,
2013-01-26 04:08:00,10.2,-8.9,30.25,NW,315,0.0,2.9,41,0.00,,,0.00,WUHU21623XXSP,2013-01-26 10:08:00,
2013-01-26 04:13:00,10.0,-9.1,30.25,WNW,292,3.1,6.3,41,0.00,,,0.00,WUHU21623XXSP,2013-01-26 10:13:00,
2013-01-26 04:18:00,10.0,-8.6,30.25,NW,315,0.0,6.3,42,0.00,,,0.00,WUHU21623XXSP,2013-01-26 10:18:00,
2013-01-26 04:23:00,9.9,-9.3,30.25,NW,315,0.4,5.6,41,0.00,,,0.00,WUHU21623XXSP,2013-01-26 10:23:00,
2013-01-26 04:28:00,9.9,-8.8,30.25,WNW,292,0.7,5.6,42,0.00,,,0.00,WUHU21623XXSP,2013-01-26 10:28:00,
2013-01-26 04:33:00,9.5,-9.1,30.26,WNW,292,0.7,10.7,42,0.00,,,0.00,WUHU21623XXSP,2013-01-26 10:33:00,
2013-01-26 04:38:00,9.5,-9.1,30.26,NNW,337,0.0,10.7,42,0.00,,,0.00,WUHU21623XXSP,2013-01-26 10:38:00,
2013-01-26 04:43:00,9.5,-9.1,30.26,NNE,22,0.0,4.7,42,0.00,,,0.00,WUHU21623XXSP,2013-01-26 10:43:00,
2013-01-26 04:48:00,9.5,-9.1,30.27,NNW,337,0.0,1.1,42,0.00,,,0.00,WUHU21623XXSP,2013-01-26 10:48:00,
2013-01-26 04:53:00,9.3,-9.3,30.27,WNW,292,0.0,10.5,42,0.00,,,0.00,WUHU21623XXSP,2013-01-26 10:53:00,
2013-01-26 04:58:00,9.3,-9.3,30.27,NW,315,0.7,10.5,42,0.00,,,0.00,WUHU21623XXSP,2013-01-26 10:58:00,
2013-01-26 05:03:00,9.3,-9.3,30.27,WNW,292,0.0,5.4,42,0.00,,,0.00,WUHU21623XXSP,2013-01-26 11:03:00,
2013-01-26 05:08:00,9.1,-9.5,30.27,West,270,0.0,9.2,42,0.00,,,0.00,WUHU21623XXSP,2013-01-26 11:08:00,
2013-01-26 05:13:00,9.0,-9.6,30.27,NW,315,0.0,9.2,42,0.00,,,0.00,WUHU21623XXSP,2013-01-26 11:13:00,
2013-01-26 05:18:00,9.0,-9.6,30.27,NW,315,0.0,6.0,42,0.00,,,0.00,WUHU21623XXSP,2013-01-26 11:18:00,
2013-01-26 05:23:00,8.8,-9.8,30.28,NNW,337,0.0,5.1,42,0.00,,,0.00,WUHU21623XXSP,2013-01-26 11:23:00,
2013-01-26 05:28:00,8.8,-9.8,30.28,NW,315,5.1,8.1,42,0.00,,,0.00,WUHU21623XXSP,2013-01-26 11:28:00,
2013-01-26 05:33:00,8.8,-9.8,30.28,NW,315,0.0,8.1,42,0.00,,,0.00,WUHU21623XXSP,2013-01-26 11:33:00,
2013-01-26 05:38:00,8.6,-9.9,30.29,NW,315,0.0,1.8,42,0.00,,,0.00,WUHU21623XXSP,2013-01-26 11:38:00,
2013-01-26 05:43:00,8.4,-10.1,30.29,WNW,292,0.0,0.0,42,0.00,,,0.00,WUHU21623XXSP,2013-01-26 11:43:00,
2013-01-26 05:48:00,8.4,-10.1,30.29,WNW,292,0.0,0.0,42,0.00,,,0.00,WUHU21623XXSP,2013-01-26 11:48:00,
2013-01-26 05:53:00,8.4,-10.1,30.29,WNW,292,0.0,0.0,42,0.00,,,0.00,WUHU21623XXSP,2013-01-26 11:53:00,
2013-01-26 05:58:00,8.2,-10.3,30.29,WNW,292,0.0,0.0,42,0.00,,,0.00,WUHU21623XXSP,2013-01-26 11:58:00,
2013-01-26 06:03:00,8.2,-9.8,30.30,WNW,292,0.0,0.0,43,0.00,,,0.00,WUHU21623XXSP,2013-01-26 12:03:00,
2013-01-26 06:08:00,8.2,-9.8,30.30,WNW,292,0.0,0.0,43,0.00,,,0.00,WUHU21623XXSP,2013-01-26 12:08:00,
2013-01-26 06:13:00,8.1,-10.4,30.30,WNW,292,0.0,0.0,42,0.00,,,0.00,WUHU21623XXSP,2013-01-26 12:13:00,
2013-01-26 06:18:00,8.1,-10.0,30.30,WNW,292,0.0,0.0,43,0.00,,,0.00,WUHU21623XXSP,2013-01-26 12:18:00,
2013-01-26 06:23:00,8.1,-10.4,30.30,WNW,292,0.0,0.0,42,0.00,,,0.00,WUHU21623XXSP,2013-01-26 12:23:00,
2013-01-26 06:28:00,7.9,-10.6,30.30,WNW,292,0.0,0.0,42,0.00,,,0.00,WUHU21623XXSP,2013-01-26 12:28:00,
2013-01-26 06:33:00,7.7,-10.8,30.30,WNW,292,0.0,0.0,42,0.00,,,0.00,WUHU21623XXSP,2013-01-26 12:33:00,
2013-01-26 06:38:00,7.9,-10.1,30.30,WNW,292,0.0,0.0,43,0.00,,,0.00,WUHU21623XXSP,2013-01-26 12:38:00,
2013-01-26 06:43:00,7.7,-10.8,30.30,NW,315,0.0,5.8,42,0.00,,,0.00,WUHU21623XXSP,2013-01-26 12:43:00,
2013-01-26 06:48:00,7.7,-10.8,30.30,NNW,337,0.0,5.8,42,0.00,,,0.00,WUHU21623XXSP,2013-01-26 12:48:00,
2013-01-26 06:53:00,7.7,-10.3,30.31,North,0,0.0,5.4,43,0.00,,,0.00,WUHU21623XXSP,2013-01-26 12:53:00,
2013-01-26 06:58:00,7.7,-10.3,30.31,North,0,0.0,5.4,43,0.00,,,0.00,WUHU21623XXSP,2013-01-26 12:58:00,
2013-01-26 07:03:00,7.7,-10.3,30.31,North,0,0.0,0.4,43,0.00,,,0.00,WUHU21623XXSP,2013-01-26 13:03:00,
2013-01-26 07:08:00,7.7,-10.3,30.31,North,0,0.0,0.4,43,0.00,,,0.00,WUHU21623XXSP,2013-01-26 13:08:00,
2013-01-26 07:13:00,7.7,-10.3,30.31,North,0,0.0,0.0,43,0.00,,,0.00,WUHU21623XXSP,2013-01-26 13:13:00,
2013-01-26 07:18:00,7.5,-10.5,30.31,NNW,337,0.0,0.4,43,0.00,,,0.00,WUHU21623XXSP,2013-01-26 13:18:00,
2013-01-26 07:23:00,7.5,-10.5,30.31,North,0,0.0,0.4,43,0.00,,,0.00,WUHU21623XXSP,2013-01-26 13:23:00,
2013-01-26 07:28:00,7.7,-10.3,30.31,NNW,337,0.0,0.0,43,0.00,,,0.00,WUHU21623XXSP,2013-01-26 13:28:00,
2013-01-26 07:33:00,7.7,-10.3,30.31,NNW,337,0.0,1.3,43,0.00,,,0.00,WUHU21623XXSP,2013-01-26 13:33:00,
2013-01-26 07:38:00,7.9,-10.1,30.32,NNW,337,0.0,1.3,43,0.00,,,0.00,WUHU21623XXSP,2013-01-26 13:38:00,
2013-01-26 07:43:00,8.2,-9.4,30.32,NNW,337,0.0,4.5,44,0.00,,,0.00,WUHU21623XXSP,2013-01-26 13:43:00,
2013-01-26 07:48:00,9.0,-8.2,30.32,North,0,0.0,4.5,45,0.00,,,0.00,WUHU21623XXSP,2013-01-26 13:48:00,
2013-01-26 07:53:00,10.2,-7.1,30.32,North,0,0.0,4.5,45,0.00,,,0.00,WUHU21623XXSP,2013-01-26 13:53:00,
2013-01-26 07:58:00,11.1,-6.2,30.33,NNW,337,0.0,2.9,45,0.00,,,0.00,WUHU21623XXSP,2013-01-26 13:58:00,
2013-01-26 08:03:00,11.7,-5.7,30.33,North,0,0.0,4.3,45,0.00,,,0.00,WUHU21623XXSP,2013-01-26 14:03:00,
2013-01-26 08:08:00,11.8,-5.6,30.33,NNW,337,0.4,4.3,45,0.00,,,0.00,WUHU21623XXSP,2013-01-26 14:08:00,
2013-01-26 08:13:00,12.0,-5.9,30.33,North,0,0.0,3.6,44,0.00,,,0.00,WUHU21623XXSP,2013-01-26 14:13:00,
2013-01-26 08:18:00,12.4,-5.1,30.34,NW,315,0.0,3.6,45,0.00,,,0.00,WUHU21623XXSP,2013-01-26 14:18:00,
2013-01-26 08:23:00,13.1,-4.5,30.34,North,0,0.9,6.9,45,0.00,,,0.00,WUHU21623XXSP,2013-01-26 14:23:00,
2013-01-26 08:28:00,14.2,-3.5,30.34,NNW,337,0.0,6.9,45,0.00,,,0.00,WUHU21623XXSP,2013-01-26 14:28:00,
2013-01-26 08:33:00,14.9,-2.8,30.34,NNW,337,0.0,5.4,45,0.00,,,0.00,WUHU21623XXSP,2013-01-26 14:33:00,
2013-01-26 08:38:00,15.4,-2.3,30.34,North,0,0.0,5.4,45,0.00,,,0.00,WUHU21623XXSP,2013-01-26 14:38:00,
2013-01-26 08:43:00,16.3,-1.4,30.34,NNE,22,0.0,3.6,45,0.00,,,0.00,WUHU21623XXSP,2013-01-26 14:43:00,
2013-01-26 08:48:00,16.7,-1.6,30.34,NE,45,0.4,3.6,44,0.00,,,0.00,WUHU21623XXSP,2013-01-26 14:48:00,
2013-01-26 08:53:00,17.2,-1.5,30.35,NW,315,0.0,4.0,43,0.00,,,0.00,WUHU21623XXSP,2013-01-26 14:53:00,
2013-01-26 08:58:00,17.2,-2.0,30.35,NNE,22,4.7,4.7,42,0.00,,,0.00,WUHU21623XXSP,2013-01-26 14:58:00,
2013-01-26 09:03:00,17.2,-2.5,30.34,NNE,22,0.0,4.7,41,0.00,,,0.00,WUHU21623XXSP,2013-01-26 15:03:00,
2013-01-26 09:08:00,17.8,-1.9,30.34,North,0,1.1,2.7,41,0.00,,,0.00,WUHU21623XXSP,2013-01-26 15:08:00,
2013-01-26 09:13:00,18.0,-1.8,30.35,NNE,22,2.0,4.3,41,0.00,,,0.00,WUHU21623XXSP,2013-01-26 15:13:00,
2013-01-26 09:18:00,18.1,-2.1,30.35,East,90,1.6,4.5,40,0.00,,,0.00,WUHU21623XXSP,2013-01-26 15:18:00,
2013-01-26 09:23:00,18.5,-1.8,30.35,NNE,22,3.4,4.5,40,0.00,,,0.00,WUHU21623XXSP,2013-01-26 15:23:00,
2013-01-26 09:28:00,18.9,-1.4,30.35,NNE,22,1.6,4.0,40,0.00,,,0.00,WUHU21623XXSP,2013-01-26 15:28:00,
2013-01-26 09:33:00,19.0,-1.9,30.35,NNW,337,2.7,4.3,39,0.00,,,0.00,WUHU21623XXSP,2013-01-26 15:33:00,
2013-01-26 09:38:00,19.6,-1.4,30.35,North,0,2.7,5.4,39,0.00,,,0.00,WUHU21623XXSP,2013-01-26 15:38:00,
2013-01-26 09:43:00,19.9,-1.7,30.35,North,0,1.6,5.4,38,0.00,,,0.00,WUHU21623XXSP,2013-01-26 15:43:00,
2013-01-26 09:48:00,20.5,-1.8,30.35,NNE,22,2.5,5.1,37,0.00,,,0.00,WUHU21623XXSP,2013-01-26 15:48:00,
2013-01-26 09:53:00,20.7,-2.3,30.35,East,90,4.5,4.5,36,0.00,,,0.00,WUHU21623XXSP,2013-01-26 15:53:00,
2013-01-26 09:58:00,20.7,-2.9,30.35,NNE,22,0.0,4.5,35,0.00,,,0.00,WUHU21623XXSP,2013-01-26 15:58:00,
2013-01-26 10:03:00,21.0,-2.5,30.35,East,90,0.0,3.6,35,0.00,,,0.00,WUHU21623XXSP,2013-01-26 16:03:00,
2013-01-26 10:08:00,21.4,-2.8,30.35,ENE,67,1.1,4.3,34,0.00,,,0.00,WUHU21623XXSP,2013-01-26 16:08:00,
2013-01-26 10:13:00,21.6,-2.7,30.36,NNE,22,0.0,4.3,34,0.00,,,0.00,WUHU21623XXSP,2013-01-26 16:13:00,
2013-01-26 10:18:00,22.1,-2.8,30.35,NNE,22,2.7,3.8,33,0.00,,,0.00,WUHU21623XXSP,2013-01-26 16:18:00,
2013-01-26 10:23:00,22.6,-2.9,30.35,North,0,3.1,3.8,32,0.00,,,0.00,WUHU21623XXSP,2013-01-26 16:23:00,
2013-01-26 10:28:00,22.8,-4.0,30.35,ESE,112,0.7,3.8,30,0.00,,,0.00,WUHU21623XXSP,2013-01-26 16:28:00,
2013-01-26 10:33:00,23.4,-4.3,30.35,North,0,0.2,2.7,29,0.00,,,0.00,WUHU21623XXSP,2013-01-26 16:33:00,
2013-01-26 10:38:00,23.7,-7.3,30.35,ESE,112,0.4,5.6,25,0.00,,,0.00,WUHU21623XXSP,2013-01-26 16:38:00,
2013-01-26 10:43:00,23.4,-12.8,30.35,ESE,112,0.0,5.6,19,0.00,,,0.00,WUHU21623XXSP,2013-01-26 16:43:00,
2013-01-26 10:48:00,23.4,-12.8,30.35,NE,45,0.0,3.4,19,0.00,,,0.00,WUHU21623XXSP,2013-01-26 16:48:00,
2013-01-26 10:53:00,23.9,-12.4,30.36,ESE,112,0.7,3.4,19,0.00,,,0.00,WUHU21623XXSP,2013-01-26 16:53:00,
2013-01-26 10:58:00,23.9,-12.4,30.35,ESE,112,0.0,2.7,19,0.00,,,0.00,WUHU21623XXSP,2013-01-26 16:58:00,
2013-01-26 11:03:00,24.4,-12.0,30.35,ENE,67,0.0,2.0,19,0.00,,,0.00,WUHU21623XXSP,2013-01-26 17:03:00,
2013-01-26 11:08:00,25.2,-11.3,30.35,ESE,112,2.5,2.5,19,0.00,,,0.00,WUHU21623XXSP,2013-01-26 17:08:00,
2013-01-26 11:13:00,25.5,-11.1,30.34,SSE,157,0.0,5.1,19,0.00,,,0.00,WUHU21623XXSP,2013-01-26 17:13:00,
2013-01-26 11:18:00,25.5,-11.1,30.34,SSE,157,0.0,5.1,19,0.00,,,0.00,WUHU21623XXSP,2013-01-26 17:18:00,
2013-01-26 11:23:00,26.2,-10.5,30.34,ESE,112,0.0,5.4,19,0.00,,,0.00,WUHU21623XXSP,2013-01-26 17:23:00,
2013-01-26 11:28:00,27.0,-9.8,30.34,East,90,0.0,5.4,19,0.00,,,0.00,WUHU21623XXSP,2013-01-26 17:28:00,
2013-01-26 11:33:00,28.0,-9.0,30.33,East,90,0.0,2.7,19,0.00,,,0.00,WUHU21623XXSP,2013-01-26 17:33:00,
2013-01-26 11:38:00,28.6,-8.5,30.34,East,90,0.0,2.7,19,0.00,,,0.00,WUHU21623XXSP,2013-01-26 17:38:00,
2013-01-26 11:43:00,29.5,-7.7,30.34,ENE,67,0.0,0.4,19,0.00,,,0.00,WUHU21623XXSP,2013-01-26 17:43:00,
2013-01-26 11:48:00,30.4,-7.0,30.34,NW,315,0.0,1.3,19,0.00,,,0.00,WUHU21623XXSP,2013-01-26 17:48:00,
2013-01-26 11:53:00,30.6,-6.8,30.34,SW,225,0.0,2.2,19,0.00,,,0.00,WUHU21623XXSP,2013-01-26 17:53:00,
2013-01-26 11:58:00,30.0,-7.3,30.34,SW,225,0.7,2.2,19,0.00,,,0.00,WUHU21623XXSP,2013-01-26 17:58:00,
2013-01-26 12:03:00,29.5,-7.7,30.34,SW,225,0.0,1.8,19,0.00,,,0.00,WUHU21623XXSP,2013-01-26 18:03:00,
2013-01-26 12:08:00,29.5,-7.7,30.34,SSW,202,1.1,2.0,19,0.00,,,0.00,WUHU21623XXSP,2013-01-26 18:08:00,
2013-01-26 12:13:00,29.1,-8.1,30.34,South,180,1.3,2.5,19,0.00,,,0.00,WUHU21623XXSP,2013-01-26 18:13:00,
2013-01-26 12:18:00,29.3,-7.9,30.34,SSW,202,0.0,2.5,19,0.00,,,0.00,WUHU21623XXSP,2013-01-26 18:18:00,
2013-01-26 12:23:00,29.7,-7.6,30.34,SE,135,0.4,1.6,19,0.00,,,0.00,WUHU21623XXSP,2013-01-26 18:23:00,
2013-01-26 12:28:00,29.8,-7.5,30.34,South,180,0.0,1.6,19,0.00,,,0.00,WUHU21623XXSP,2013-01-26 18:28:00,
2013-01-26 12:33:00,29.8,-7.5,30.34,SSW,202,0.0,1.8,19,0.00,,,0.00,WUHU21623XXSP,2013-01-26 18:33:00,
2013-01-26 12:38:00,29.7,-7.6,30.34,SW,225,0.7,2.0,19,0.00,,,0.00,WUHU21623XXSP,2013-01-26 18:38:00,
2013-01-26 12:43:00,29.7,-7.6,30.34,West,270,0.0,4.5,19,0.00,,,0.00,WUHU21623XXSP,2013-01-26 18:43:00,
2013-01-26 12:48:00,30.6,-6.8,30.33,SSW,202,0.4,4.5,19,0.00,,,0.00,WUHU21623XXSP,2013-01-26 18:48:00,
2013-01-26 12:53:00,30.2,-7.2,30.33,WNW,292,1.3,6.9,19,0.00,,,0.00,WUHU21623XXSP,2013-01-26 18:53:00,
2013-01-26 12:58:00,30.6,-6.8,30.33,SSW,202,1.8,6.9,19,0.00,,,0.00,WUHU21623XXSP,2013-01-26 18:58:00,
2013-01-26 13:03:00,30.7,-6.7,30.33,ESE,112,0.2,5.1,19,0.00,,,0.00,WUHU21623XXSP,2013-01-26 19:03:00,
2013-01-26 13:08:00,30.7,-6.7,30.32,ESE,112,0.0,1.3,19,0.00,,,0.00,WUHU21623XXSP,2013-01-26 19:08:00,
2013-01-26 13:13:00,30.9,-6.6,30.32,South,180,2.5,2.5,19,0.00,,,0.00,WUHU21623XXSP,2013-01-26 19:13:00,
2013-01-26 13:18:00,31.5,-6.1,30.33,West,270,0.0,2.5,19,0.00,,,0.00,WUHU21623XXSP,2013-01-26 19:18:00,
2013-01-26 13:23:00,32.0,-5.7,30.32,NW,315,0.0,6.5,19,0.00,,,0.00,WUHU21623XXSP,2013-01-26 19:23:00,
2013-01-26 13:28:00,32.4,-5.3,30.32,SE,135,1.8,6.5,19,0.00,,,0.00,WUHU21623XXSP,2013-01-26 19:28:00,
2013-01-26 13:33:00,32.2,-5.5,30.31,SE,135,0.7,1.8,19,0.00,,,0.00,WUHU21623XXSP,2013-01-26 19:33:00,
2013-01-26 13:38:00,31.5,-6.1,30.30,ESE,112,0.0,1.8,19,0.00,,,0.00,WUHU21623XXSP,2013-01-26 19:38:00,
2013-01-26 13:43:00,32.2,-5.5,30.30,South,180,0.9,1.8,19,0.00,,,0.00,WUHU21623XXSP,2013-01-26 19:43:00,
2013-01-26 13:48:00,32.2,-5.5,30.29,SSE,157,0.0,3.4,19,0.00,,,0.00,WUHU21623XXSP,2013-01-26 19:48:00,
2013-01-26 13:53:00,31.8,-5.8,30.29,East,90,0.0,3.4,19,0.00,,,0.00,WUHU21623XXSP,2013-01-26 19:53:00,
2013-01-26 13:58:00,32.2,-5.5,30.30,East,90,0.0,2.5,19,0.00,,,0.00,WUHU21623XXSP,2013-01-26 19:58:00,
2013-01-26 14:03:00,32.5,-5.2,30.30,ENE,67,0.7,2.7,19,0.00,,,0.00,WUHU21623XXSP,2013-01-26 20:03:00,
2013-01-26 14:08:00,32.4,-5.3,30.30,East,90,0.0,2.7,19,0.00,,,0.00,WUHU21623XXSP,2013-01-26 20:08:00,
2013-01-26 14:13:00,32.2,-5.5,30.30,SSE,157,0.0,1.8,19,0.00,,,0.00,WUHU21623XXSP,2013-01-26 20:13:00,
2013-01-26 14:18:00,32.2,-5.5,30.30,South,180,0.0,1.8,19,0.00,,,0.00,WUHU21623XXSP,2013-01-26 20:18:00,
2013-01-26 14:23:00,32.5,-5.2,30.31,NNW,337,0.0,3.6,19,0.00,,,0.00,WUHU21623XXSP,2013-01-26 20:23:00,
2013-01-26 14:28:00,32.9,-4.9,30.31,SSW,202,0.0,3.6,19,0.00,,,0.00,WUHU21623XXSP,2013-01-26 20:28:00,
2013-01-26 14:33:00,32.5,-5.2,30.31,SSE,157,0.0,1.1,19,0.00,,,0.00,WUHU21623XXSP,2013-01-26 20:33:00,
2013-01-26 14:38:00,32.9,-4.9,30.31,ESE,112,0.0,5.8,19,0.00,,,0.00,WUHU21623XXSP,2013-01-26 20:38:00,
2013-01-26 14:43:00,32.9,-4.9,30.31,North,0,0.0,5.8,19,0.00,,,0.00,WUHU21623XXSP,2013-01-26 20:43:00,
2013-01-26 14:48:00,33.1,-4.7,30.31,SE,135,1.3,2.9,19,0.00,,,0.00,WUHU21623XXSP,2013-01-26 20:48:00,
2013-01-26 14:53:00,33.3,-4.6,30.31,SSW,202,0.0,2.9,19,0.00,,,0.00,WUHU21623XXSP,2013-01-26 20:53:00,
2013-01-26 14:58:00,32.5,-5.2,30.30,SE,135,0.0,1.3,19,0.00,,,0.00,WUHU21623XXSP,2013-01-26 20:58:00,
2013-01-26 15:03:00,31.1,-6.4,30.30,SE,135,0.0,2.5,19,0.00,,,0.00,WUHU21623XXSP,2013-01-26 21:03:00,
2013-01-26 15:08:00,29.7,-7.6,30.30,SE,135,0.2,2.5,19,0.00,,,0.00,WUHU21623XXSP,2013-01-26 21:08:00,
2013-01-26 15:13:00,28.8,-8.3,30.30,SE,135,0.7,4.7,19,0.00,,,0.00,WUHU21623XXSP,2013-01-26 21:13:00,
2013-01-26 15:18:00,28.0,-9.0,30.30,ESE,112,0.9,8.1,19,0.00,,,0.00,WUHU21623XXSP,2013-01-26 21:18:00,
2013-01-26 15:23:00,27.7,-9.2,30.30,SSE,157,0.0,8.1,19,0.00,,,0.00,WUHU21623XXSP,2013-01-26 21:23:00,
2013-01-26 15:28:00,27.3,-9.6,30.30,SE,135,1.6,3.6,19,0.00,,,0.00,WUHU21623XXSP,2013-01-26 21:28:00,
2013-01-26 15:33:00,27.0,-9.8,30.30,SE,135,0.0,3.6,19,0.00,,,0.00,WUHU21623XXSP,2013-01-26 21:33:00,
2013-01-26 15:38:00,26.8,-10.0,30.30,SE,135,0.0,2.0,19,0.00,,,0.00,WUHU21623XXSP,2013-01-26 21:38:00,
2013-01-26 15:43:00,26.8,-10.0,30.30,ESE,112,0.0,6.0,19,0.00,,,0.00,WUHU21623XXSP,2013-01-26 21:43:00,
2013-01-26 15:48:00,26.4,-10.3,30.30,SSE,157,1.1,6.0,19,0.00,,,0.00,WUHU21623XXSP,2013-01-26 21:48:00,
2013-01-26 15:53:00,26.2,-10.5,30.31,SSW,202,2.2,4.9,19,0.00,,,0.00,WUHU21623XXSP,2013-01-26 21:53:00,
2013-01-26 15:58:00,26.2,-10.5,30.31,SSE,157,0.9,5.6,19,0.00,,,0.00,WUHU21623XXSP,2013-01-26 21:58:00,
2013-01-26 16:03:00,26.2,-10.5,30.30,SSE,149,1.2,6.7,19,0.02,,,0.02,WUHU21623XXSP,2013-01-26 22:03:00,
2013-01-26 16:08:00,27.0,-9.8,30.30,SSE,157,0.0,6.7,19,0.02,,,0.02,WUHU21623XXSP,2013-01-26 22:08:00,
2013-01-26 16:13:00,27.5,-9.4,30.30,SE,135,0.0,6.3,19,0.02,,,0.02,WUHU21623XXSP,2013-01-26 22:13:00,
2013-01-26 16:18:00,27.9,-9.1,30.30,SSE,157,0.0,6.3,19,0.02,,,0.02,WUHU21623XXSP,2013-01-26 22:18:00,
2013-01-26 16:23:00,27.9,-9.1,30.30,SE,135,0.4,4.0,19,0.02,,,0.02,WUHU21623XXSP,2013-01-26 22:23:00,
2013-01-26 16:28:00,27.3,-9.6,30.30,SE,135,0.0,7.6,19,0.02,,,0.02,WUHU21623XXSP,2013-01-26 22:28:00,
2013-01-26 16:33:00,26.8,-10.0,30.30,ESE,112,0.0,7.6,19,0.02,,,0.02,WUHU21623XXSP,2013-01-26 22:33:00,
2013-01-26 16:38:00,26.4,-10.3,30.30,SSE,157,1.1,5.4,19,0.02,,,0.02,WUHU21623XXSP,2013-01-26 22:38:00,
2013-01-26 16:43:00,26.1,-10.6,30.29,ESE,112,0.0,4.0,19,0.02,,,0.02,WUHU21623XXSP,2013-01-26 22:43:00,
2013-01-26 16:48:00,25.5,-11.1,30.28,ESE,112,0.4,2.7,19,0.02,,,0.02,WUHU21623XXSP,2013-01-26 22:48:00,
2013-01-26 16:53:00,25.3,-11.2,30.28,ESE,120,1.2,5.1,19,0.02,,,0.02,WUHU21623XXSP,2013-01-26 22:53:00,
2013-01-26 16:58:00,25.3,-11.2,30.29,SSE,157,0.9,6.5,19,0.02,,,0.02,WUHU21623XXSP,2013-01-26 22:58:00,
2013-01-26 17:03:00,25.0,-11.5,30.30,ESE,120,1.5,6.9,19,0.00,,,0.02,WUHU21623XXSP,2013-01-26 23:03:00,
2013-01-26 17:08:00,25.0,-11.5,30.30,SE,134,1.8,14.1,19,0.02,,,0.04,WUHU21623XXSP,2013-01-26 23:08:00,
2013-01-26 17:13:00,25.0,-11.5,30.30,SSE,152,2.2,14.1,19,0.04,,,0.06,WUHU21623XXSP,2013-01-26 23:13:00,
2013-01-26 17:18:00,25.0,-11.5,30.30,SSE,157,0.2,14.1,19,0.06,,,0.08,WUHU21623XXSP,2013-01-26 23:18:00,
2013-01-26 17:23:00,25.0,-11.5,30.30,SSE,150,2.1,6.9,19,0.08,,,0.10,WUHU21623XXSP,2013-01-26 23:23:00,
2013-01-26 17:28:00,24.6,-11.8,30.30,SE,141,1.6,2.7,19,0.08,,,0.10,WUHU21623XXSP,2013-01-26 23:28:00,
2013-01-26 17:33:00,24.4,-12.0,30.30,SE,135,0.7,3.1,19,0.10,,,0.12,WUHU21623XXSP,2013-01-26 23:33:00,
2013-01-26 17:38:00,24.3,-12.1,30.30,SE,135,0.7,8.1,19,0.10,,,0.12,WUHU21623XXSP,2013-01-26 23:38:00,
2013-01-26 17:43:00,24.3,-12.1,30.30,SSE,157,2.0,8.1,19,0.10,,,0.12,WUHU21623XXSP,2013-01-26 23:43:00,
2013-01-26 17:48:00,24.3,-12.1,30.30,SE,135,1.3,6.7,19,0.10,,,0.12,WUHU21623XXSP,2013-01-26 23:48:00,
2013-01-26 17:53:00,24.1,-12.2,30.29,SE,135,2.5,4.5,19,0.10,,,0.12,WUHU21623XXSP,2013-01-26 23:53:00,
2013-01-26 17:58:00,23.9,-12.4,30.29,SE,135,1.1,4.5,19,0.10,,,0.12,WUHU21623XXSP,2013-01-26 23:58:00,
2013-01-26 18:03:00,23.7,-12.6,30.29,SE,135,3.6,6.3,19,0.08,,,0.12,WUHU21623XXSP,2013-01-27 00:03:00,
2013-01-26 18:08:00,23.7,-11.5,30.29,SE,135,2.0,14.1,20,0.06,,,0.12,WUHU21623XXSP,2013-01-27 00:08:00,
2013-01-26 18:13:00,23.5,-12.7,30.29,SE,135,0.4,14.1,19,0.06,,,0.12,WUHU21623XXSP,2013-01-27 00:13:00,
2013-01-26 18:18:00,23.5,-8.1,30.29,SE,140,2.5,5.4,24,0.02,,,0.12,WUHU21623XXSP,2013-01-27 00:18:00,
2013-01-26 18:23:00,23.5,-7.3,30.30,SE,142,2.2,4.9,25,0.02,,,0.12,WUHU21623XXSP,2013-01-27 00:23:00,
2013-01-26 18:28:00,23.4,-3.5,30.30,SE,135,0.9,4.0,30,0.02,,,0.12,WUHU21623XXSP,2013-01-27 00:28:00,
2013-01-26 18:33:00,23.4,-3.5,30.30,SE,135,1.8,4.5,30,0.00,,,0.12,WUHU21623XXSP,2013-01-27 00:33:00,
2013-01-26 18:38:00,23.4,-3.5,30.30,SSE,157,1.1,4.5,30,0.00,,,0.12,WUHU21623XXSP,2013-01-27 00:38:00,
2013-01-26 18:43:00,23.4,-2.3,30.30,SSE,157,0.7,4.9,32,0.00,,,0.12,WUHU21623XXSP,2013-01-27 00:43:00,
2013-01-26 18:48:00,23.4,-3.5,30.30,ESE,112,0.4,4.9,30,0.00,,,0.12,WUHU21623XXSP,2013-01-27 00:48:00,
2013-01-26 18:53:00,23.4,-2.3,30.30,SSE,157,0.0,3.4,32,0.00,,,0.12,WUHU21623XXSP,2013-01-27 00:53:00,
2013-01-26 18:58:00,23.4,-2.3,30.31,SE,135,0.0,7.8,32,0.00,,,0.12,WUHU21623XXSP,2013-01-27 00:58:00,
2013-01-26 19:03:00,23.4,-2.3,30.31,SE,135,2.2,7.8,32,0.00,,,0.12,WUHU21623XXSP,2013-01-27 01:03:00,
2013-01-26 19:08:00,23.4,-2.3,30.31,SSE,157,2.7,4.7,32,0.00,,,0.12,WUHU21623XXSP,2013-01-27 01:08:00,
2013-01-26 19:13:00,23.4,-1.7,30.31,SSE,157,1.6,8.7,33,0.00,,,0.12,WUHU21623XXSP,2013-01-27 01:13:00,
2013-01-26 19:18:00,23.2,-1.8,30.30,ESE,112,2.5,8.7,33,0.00,,,0.12,WUHU21623XXSP,2013-01-27 01:18:00,
2013-01-26 19:23:00,23.2,-1.2,30.30,SE,135,4.0,6.7,34,0.00,,,0.12,WUHU21623XXSP,2013-01-27 01:23:00,
2013-01-26 19:28:00,23.0,-1.4,30.31,SSE,157,1.3,6.3,34,0.00,,,0.12,WUHU21623XXSP,2013-01-27 01:28:00,
2013-01-26 19:33:00,22.8,-0.9,30.31,SE,135,0.7,6.5,35,0.00,,,0.12,WUHU21623XXSP,2013-01-27 01:33:00,
2013-01-26 19:38:00,22.8,-0.9,30.30,SE,135,3.1,6.5,35,0.00,,,0.12,WUHU21623XXSP,2013-01-27 01:38:00,
2013-01-26 19:43:00,22.6,-1.1,30.30,ESE,112,1.3,4.9,35,0.00,,,0.12,WUHU21623XXSP,2013-01-27 01:43:00,
2013-01-26 19:48:00,22.6,-1.1,30.30,SE,135,2.0,4.9,35,0.00,,,0.12,WUHU21623XXSP,2013-01-27 01:48:00,
2013-01-26 19:53:00,22.6,0.1,30.30,SSE,157,4.0,5.8,37,0.00,,,0.12,WUHU21623XXSP,2013-01-27 01:53:00,
2013-01-26 19:58:00,22.8,0.3,30.30,ESE,112,0.9,7.4,37,0.00,,,0.12,WUHU21623XXSP,2013-01-27 01:58:00,
2013-01-26 20:03:00,22.6,0.1,30.29,SE,135,6.3,7.4,37,0.00,,,0.12,WUHU21623XXSP,2013-01-27 02:03:00,
2013-01-26 20:08:00,22.6,0.8,30.29,SE,135,2.7,8.3,38,0.00,,,0.12,WUHU21623XXSP,2013-01-27 02:08:00,
2013-01-26 20:13:00,22.5,0.0,30.29,ESE,112,0.7,8.3,37,0.00,,,0.12,WUHU21623XXSP,2013-01-27 02:13:00,
2013-01-26 20:18:00,22.5,0.6,30.29,SE,135,0.7,6.9,38,0.00,,,0.12,WUHU21623XXSP,2013-01-27 02:18:00,
2013-01-26 20:23:00,22.6,1.4,30.29,SE,135,1.3,6.9,39,0.00,,,0.12,WUHU21623XXSP,2013-01-27 02:23:00,
2013-01-26 20:28:00,22.5,1.8,30.30,East,90,6.0,6.5,40,0.00,,,0.12,WUHU21623XXSP,2013-01-27 02:28:00,
2013-01-26 20:33:00,22.5,1.8,30.30,South,180,0.7,8.7,40,0.00,,,0.12,WUHU21623XXSP,2013-01-27 02:33:00,
2013-01-26 20:38:00,22.5,1.8,30.30,SE,135,1.1,8.7,40,0.00,,,0.12,WUHU21623XXSP,2013-01-27 02:38:00,
2013-01-26 20:43:00,22.5,1.8,30.30,SE,135,1.8,7.8,40,0.00,,,0.12,WUHU21623XXSP,2013-01-27 02:43:00,
2013-01-26 20:48:00,22.5,1.8,30.29,SSE,157,3.1,7.8,40,0.00,,,0.12,WUHU21623XXSP,2013-01-27 02:48:00,
2013-01-26 20:53:00,22.3,2.1,30.29,SE,135,2.5,5.6,41,0.00,,,0.12,WUHU21623XXSP,2013-01-27 02:53:00,
2013-01-26 20:58:00,22.3,2.1,30.29,SE,135,5.1,5.6,41,0.00,,,0.12,WUHU21623XXSP,2013-01-27 02:58:00,
2013-01-26 21:03:00,22.3,2.5,30.29,SE,136,2.7,6.9,42,0.00,,,0.12,WUHU21623XXSP,2013-01-27 03:03:00,
2013-01-26 21:08:00,22.3,2.5,30.28,SE,139,2.7,6.9,42,0.00,,,0.12,WUHU21623XXSP,2013-01-27 03:08:00,
2013-01-26 21:13:00,22.5,2.7,30.28,SE,142,2.6,5.4,42,0.02,,,0.14,WUHU21623XXSP,2013-01-27 03:13:00,
2013-01-26 21:18:00,22.5,3.2,30.28,SE,143,2.5,4.7,43,0.02,,,0.14,WUHU21623XXSP,2013-01-27 03:18:00,
2013-01-26 21:23:00,22.5,3.2,30.28,SE,146,2.5,14.1,43,0.02,,,0.14,WUHU21623XXSP,2013-01-27 03:23:00,
2013-01-26 21:28:00,22.5,3.3,30.28,SSE,157,1.3,14.1,43,0.02,,,0.14,WUHU21623XXSP,2013-01-27 03:28:00,
2013-01-26 21:33:00,22.6,3.4,30.28,SE,135,0.2,14.1,43,0.02,,,0.14,WUHU21623XXSP,2013-01-27 03:33:00,
2013-01-26 21:38:00,22.6,3.9,30.28,SSE,157,2.7,7.6,44,0.02,,,0.14,WUHU21623XXSP,2013-01-27 03:38:00,
2013-01-26 21:43:00,22.6,3.9,30.29,SE,135,1.8,5.4,44,0.02,,,0.14,WUHU21623XXSP,2013-01-27 03:43:00,
2013-01-26 21:48:00,22.6,3.9,30.29,SE,135,1.1,5.4,44,0.02,,,0.14,WUHU21623XXSP,2013-01-27 03:48:00,
2013-01-26 21:53:00,22.6,3.9,30.30,ESE,112,2.0,4.9,44,0.02,,,0.14,WUHU21623XXSP,2013-01-27 03:53:00,
2013-01-26 21:58:00,22.6,3.9,30.30,SE,135,1.3,4.9,44,0.02,,,0.14,WUHU21623XXSP,2013-01-27 03:58:00,
2013-01-26 22:03:00,22.6,3.9,30.30,SE,135,2.0,4.9,44,0.02,,,0.14,WUHU21623XXSP,2013-01-27 04:03:00,
2013-01-26 22:08:00,22.6,3.9,30.29,SE,135,2.7,8.1,44,0.02,,,0.14,WUHU21623XXSP,2013-01-27 04:08:00,
2013-01-26 22:13:00,22.6,3.9,30.29,SE,135,2.0,8.1,44,0.00,,,0.14,WUHU21623XXSP,2013-01-27 04:13:00,
2013-01-26 22:18:00,22.6,3.9,30.30,SSE,157,1.6,6.3,44,0.00,,,0.14,WUHU21623XXSP,2013-01-27 04:18:00,
2013-01-26 22:23:00,22.8,4.1,30.30,SSE,157,4.7,6.3,44,0.00,,,0.14,WUHU21623XXSP,2013-01-27 04:23:00,
2013-01-26 22:28:00,22.6,3.9,30.29,SSE,157,2.5,6.7,44,0.00,,,0.14,WUHU21623XXSP,2013-01-27 04:28:00,
2013-01-26 22:33:00,22.6,3.9,30.30,SE,135,4.9,6.7,44,0.00,,,0.14,WUHU21623XXSP,2013-01-27 04:33:00,
2013-01-26 22:38:00,22.6,3.9,30.29,SSE,157,4.7,7.2,44,0.00,,,0.14,WUHU21623XXSP,2013-01-27 04:38:00,
2013-01-26 22:43:00,22.6,3.9,30.29,SSE,157,0.7,7.2,44,0.00,,,0.14,WUHU21623XXSP,2013-01-27 04:43:00,
2013-01-26 22:48:00,22.6,3.9,30.29,SE,135,2.0,6.7,44,0.00,,,0.14,WUHU21623XXSP,2013-01-27 04:48:00,
2013-01-26 22:53:00,22.5,4.2,30.29,SE,135,2.0,6.7,45,0.00,,,0.14,WUHU21623XXSP,2013-01-27 04:53:00,
2013-01-26 22:58:00,22.5,3.7,30.29,SE,135,0.9,6.0,44,0.00,,,0.14,WUHU21623XXSP,2013-01-27 04:58:00,
2013-01-26 23:00:00,22.5,3.7,30.29,SE,135,1.8,6.0,44,0.00,,,0.14,WUHU21623XXSP,2013-01-27 05:00:00,
2013-01-26 23:01:00,22.5,3.7,30.29,ESE,112,0.7,6.0,44,0.00,,,0.14,WUHU21623XXSP,2013-01-27 05:01:00,
2013-01-26 23:03:00,22.5,3.7,30.29,SE,135,2.0,6.0,44,0.00,,,0.14,WUHU21623XXSP,2013-01-27 05:03:00,
2013-01-26 23:08:00,22.3,3.6,30.29,SSE,157,1.1,5.1,44,0.00,,,0.14,WUHU21623XXSP,2013-01-27 05:08:00,
2013-01-26 23:13:00,22.3,3.6,30.30,SSE,157,2.2,5.1,44,0.00,,,0.14,WUHU21623XXSP,2013-01-27 05:13:00,
2013-01-26 23:18:00,22.3,4.0,30.30,SSE,157,0.9,3.8,45,0.00,,,0.14,WUHU21623XXSP,2013-01-27 05:18:00,
2013-01-26 23:23:00,22.1,3.9,30.30,ESE,112,0.4,3.8,45,0.00,,,0.14,WUHU21623XXSP,2013-01-27 05:23:00,
2013-01-26 23:28:00,22.1,3.9,30.30,ESE,112,0.9,2.5,45,0.00,,,0.14,WUHU21623XXSP,2013-01-27 05:28:00,
2013-01-26 23:33:00,21.9,3.7,30.30,SSE,157,0.0,2.5,45,0.00,,,0.14,WUHU21623XXSP,2013-01-27 05:33:00,
2013-01-26 23:38:00,21.9,3.7,30.29,SE,135,0.9,3.1,45,0.00,,,0.14,WUHU21623XXSP,2013-01-27 05:38:00,
2013-01-26 23:43:00,21.7,3.5,30.28,SE,135,3.1,3.1,45,0.00,,,0.14,WUHU21623XXSP,2013-01-27 05:43:00,
2013-01-26 23:48:00,21.6,3.4,30.28,SE,135,0.9,3.1,45,0.00,,,0.14,WUHU21623XXSP,2013-01-27 05:48:00,
2013-01-26 23:53:00,21.4,3.6,30.28,SE,135,0.9,3.4,46,0.00,,,0.14,WUHU21623XXSP,2013-01-27 05:53:00,
2013-01-26 23:58:00,21.4,3.6,30.27,SE,135,3.4,4.9,46,0.00,,,0.14,WUHU21623XXSP,2013-01-27 05:58:00,